Theta_e
349 351 348 348 350 350 351 351 352 354 355 359 361 361 361 361 361 359 358 356 350 347 344 341 342 350 344 340 339 338 335 334 334
346 350 349 347 349 349 350 351 353 355 357 359 360 359 360 361 361 360 355 354 355 350 348 341 346 346 343 338 339 336 335 333 334
346 349 350 347 348 348 349 351 352 354 356 358 359 358 359 359 360 360 358 357 356 350 350 347 344 343 339 338 338 335 336 333 333
344 348 350 349 348 347 349 349 350 353 356 357 359 358 358 357 357 357 359 358 359 356 352 347 344 343 337 337 337 336 336 335 332
336 345 349 351 350 348 348 350 349 351 353 356 358 357 359 358 357 356 358 359 358 352 349 343 342 341 339 337 336 336 336 335 332
341 347 349 352 352 352 351 350 351 351 354 355 355 357 358 358 356 357 357 357 352 348 343 329 333 322 330 336 337 336 337 337 335
344 349 351 353 353 354 353 352 355 355 353 354 355 356 358 358 357 356 357 353 346 344 330 326 328 326 323 334 339 337 337 336 336
343 350 351 353 354 361 362 357 356 355 355 355 355 356 357 358 358 357 352 348 344 339 321 327 324 326 328 332 339 337 336 335 334
343 351 351 353 355 357 359 357 357 356 356 355 356 357 358 358 358 354 347 345 341 334 323 328 325 328 331 334 336 333 332 333 334
344 349 351 352 354 355 357 356 357 357 356 356 356 358 358 359 357 352 346 344 343 338 334 331 332 334 335 334 336 334 332 331 332
343 349 350 351 351 354 353 353 353 353 354 355 356 357 358 358 354 350 347 344 344 340 336 334 336 337 336 335 335 337 336 333 334
344 348 350 350 348 350 351 349 350 350 352 353 355 356 356 354 352 348 347 346 344 343 339 337 339 339 338 337 337 339 336 334 334
341 345 347 348 345 347 347 346 347 349 351 353 355 355 355 352 350 349 347 346 345 342 342 339 339 339 338 337 338 337 332 331 333
344 347 348 346 345 345 346 345 347 349 350 353 353 354 353 350 349 350 348 346 344 343 342 340 341 340 339 338 334 336 334 330 332
348 347 345 343 346 349 348 348 349 351 352 354 354 354 352 349 350 349 349 346 343 341 341 341 340 339 340 337 338 336 336 332 330
344 343 344 342 347 350 351 352 352 354 358 356 355 352 350 349 349 347 346 345 342 341 340 340 339 339 339 337 337 335 331 329 327
347 348 346 344 345 349 353 353 354 356 352 353 353 352 351 348 349 347 344 343 342 342 342 340 339 339 338 335 335 334 328 326 327
348 348 346 344 346 350 352 352 352 351 351 351 351 350 349 347 345 344 345 342 339 341 336 336 336 335 333 332 334 334 332 328 327
347 349 348 349 349 351 352 352 351 351 350 350 349 346 346 345 345 345 344 339 332 332 331 328 329 332 332 332 331 330 327 325 323
336 339 342 349 348 349 349 350 350 350 350 349 347 345 344 343 342 340 339 338 335 332 325 328 327 328 328 325 325 324 322 320 316
Wind_Speed
20 24 24 25 25 29 32 33 33 31 29 28 27 27 27 26 25 24 22 19 17 15 13 11 10 12 10 10 9 9 9 8 8
17 23 26 27 26 32 33 33 33 33 31 29 29 27 26 26 25 25 21 18 17 14 12 10 11 12 11 10 11 11 11 10 9
18 20 24 26 26 33 36 35 35 34 33 31 28 28 27 27 26 24 22 20 20 19 13 10 10 11 11 12 10 11 13 12 11
15 18 22 24 26 34 35 35 35 34 31 31 30 29 30 28 26 24 23 22 20 14 14 13 11 10 11 13 12 13 16 15 12
10 13 18 22 23 28 33 37 35 34 33 31 31 33 31 28 25 25 25 23 20 19 16 17 17 7 10 14 13 14 18 17 14
8 8 14 18 20 22 28 34 34 36 34 34 32 30 28 27 28 28 26 30 29 25 23 22 23 20 20 22 19 19 20 19 17
10 9 11 16 18 20 25 30 31 31 33 32 31 29 28 27 27 26 28 29 33 31 29 30 31 33 31 17 20 22 22 19 17
12 12 14 18 20 18 17 24 27 28 29 27 27 26 25 25 22 23 26 30 38 40 38 41 37 37 26 20 24 23 24 20 19
15 16 16 19 19 19 20 24 25 24 23 23 21 21 22 20 22 25 32 31 36 41 48 46 40 34 25 22 24 24 24 21 19
18 18 18 20 20 17 17 22 22 21 20 20 21 21 22 24 25 29 30 29 33 39 37 35 29 21 18 26 24 24 24 22 21
18 16 15 15 16 15 19 20 21 20 20 21 22 22 23 24 26 27 29 29 32 33 31 27 22 16 19 26 26 22 23 22 18
13 12 12 14 17 20 23 23 23 23 22 22 23 22 24 25 27 25 24 27 29 31 30 28 25 19 19 23 23 23 25 24 20
10 13 14 15 23 24 25 25 26 25 24 24 24 25 26 27 26 26 27 25 23 25 25 25 23 19 21 23 21 22 25 27 25
10 14 16 25 25 23 24 25 25 22 22 21 22 23 25 26 27 26 25 24 22 19 18 18 18 20 24 22 25 19 23 26 23
18 20 19 24 23 22 20 20 20 19 17 17 18 20 21 22 22 20 20 22 21 20 19 18 16 19 19 21 21 21 19 22 24
18 19 15 21 19 18 16 14 13 14 14 16 18 19 20 19 18 17 17 19 17 17 17 17 16 18 19 21 15 14 17 17 17
14 13 12 16 15 13 12 11 13 14 14 15 17 18 17 16 17 17 17 17 15 14 15 14 16 18 11 9 11 10 8 11 12
12 12 11 10 9 10 10 11 11 12 12 14 15 15 17 18 16 16 13 9 9 12 5 5 8 8 9 11 11 11 13 13 13
8 10 10 7 8 9 9 11 12 13 14 16 17 15 13 13 13 13 12 9 5 8 4 7 6 7 6 3 7 10 17 16 11
9 12 9 5 5 6 9 11 14 13 13 12 14 13 13 13 11 12 12 12 13 12 5 5 6 6 9 8 8 10 12 9 6
Wind_Direction
194 204 202 202 200 203 202 203 204 206 207 211 210 211 213 215 216 219 222 222 227 218 224 221 221 216 216 221 217 217 205 206 225
201 204 205 199 199 203 202 203 203 205 208 209 209 211 212 214 214 216 218 221 214 217 222 219 210 203 215 223 224 221 214 221 221
210 203 206 202 200 200 200 202 204 206 210 210 210 210 212 214 213 212 210 211 207 207 209 217 208 202 208 203 216 234 224 230 230
219 204 204 206 203 203 198 202 204 206 208 209 209 208 210 211 211 207 206 207 203 206 187 178 203 214 212 215 207 228 237 239 243
225 213 206 207 207 201 196 203 203 206 207 208 208 208 207 209 207 204 203 198 191 190 192 164 177 181 247 239 229 230 236 239 239
237 230 209 205 202 195 203 202 203 207 207 209 208 209 206 207 206 205 199 186 189 185 178 182 183 187 215 235 233 234 237 239 241
244 222 208 200 200 195 200 202 201 206 210 210 211 209 209 208 208 203 193 188 193 188 183 182 192 211 215 230 246 240 239 238 241
235 216 199 198 197 191 193 198 201 204 209 207 211 210 211 209 202 192 192 191 193 194 187 198 209 216 215 239 236 229 236 236 237
230 220 203 202 196 194 193 195 196 196 201 203 202 207 207 204 184 185 188 196 192 192 196 202 213 220 214 219 228 229 233 231 238
231 222 204 196 194 196 188 187 187 184 186 188 188 192 193 191 183 187 190 201 199 200 202 204 210 211 213 220 228 232 237 237 242
235 223 199 190 188 179 173 176 176 172 172 176 180 183 186 185 182 190 194 199 206 208 209 210 215 212 220 223 229 234 240 242 239
241 210 198 175 169 166 166 166 161 160 165 169 171 175 179 181 186 193 194 200 205 208 204 210 215 224 233 232 230 240 238 241 235
205 177 180 169 162 157 158 151 155 155 156 162 170 174 178 179 184 188 193 200 203 208 216 209 219 236 233 224 227 230 235 233 227
147 130 145 139 144 142 141 144 147 151 156 164 167 171 174 179 184 188 189 195 185 209 209 210 221 234 227 219 229 228 235 234 226
127 121 131 125 124 126 133 141 148 147 152 154 160 166 168 174 179 182 188 181 174 185 205 215 226 228 228 229 230 232 234 228 231
105 108 113 117 117 119 124 130 142 140 141 151 155 157 161 168 172 183 176 170 173 187 205 222 225 227 228 230 201 217 227 234 234
88 91 99 107 115 117 113 113 120 133 146 152 155 154 159 163 174 173 169 174 182 204 209 215 223 232 225 223 197 212 205 202 191
79 78 75 85 104 110 116 117 117 128 141 153 157 160 164 173 169 174 178 181 185 217 193 224 239 221 216 236 210 216 197 193 186
65 79 68 72 97 118 124 118 122 136 149 159 155 154 161 162 166 171 179 168 177 198 161 190 213 214 216 231 209 182 186 191 186
65 81 79 68 79 106 123 125 123 130 141 148 149 152 155 160 173 173 176 181 192 181 162 171 184 185 184 183 177 169 169 171 175